Location: Zagreb
(45.8000°N, 16.0000°E)
Time: 14:16:44
(UTC+02:00)

Transit 2A Rocket - Pass Details

Date: 10 August 2022
Orbit: 593 x 907 km, 66.7° (Epoch: 25 September)

Event Time Altitude Azimuth Distance (km) Brightness Sun altitude
Rises 04:05:23 0° 329° (NNW) 2,850 8.1 -15.9°
Reaches altitude 10° 04:07:37 10° 334° (NNW) 1,958 7.3 -15.6°
Maximum altitude 04:11:57 58° 54° (NE) 730 5.2 -15.1°
Drops below altitude 10° 04:16:31 10° 134° (SE) 2,066 7.3 -14.5°
Sets 04:18:55 0° 138° (SE) 3,021 8.1 -14.2°
